�������l�o���
Date,Time,MP-1(��Sv/h),MP-2(��Sv/h),MP-3(��Sv/h),MP-4(��Sv/h),MP-5(��Sv/h),MP-6(��Sv/h),MP-7(��Sv/h),MP-8(��Sv/h),����,����(m/s),���J
2017/09/20,00:00,0.939,1.486,0.964,1.772,1.205,0.514,0.937,0.862,��쐼,4.7,��
2017/09/20,00:10,0.939,1.483,0.963,1.774,1.204,0.513,0.938,0.864,�쐼,3.8,��
2017/09/20,00:20,0.939,1.482,0.963,1.773,1.205,0.514,0.940,0.865,���쐼,3.9,��
2017/09/20,00:30,0.939,1.485,0.963,1.772,1.205,0.513,0.937,0.864,���쐼,4.2,��
2017/09/20,00:40,0.937,1.483,0.963,1.771,1.205,0.514,0.938,0.864,���k��,3.2,��
2017/09/20,00:50,0.938,1.479,0.964,1.772,1.204,0.514,0.938,0.863,�k�k��,4.1,��
2017/09/20,01:00,0.939,1.481,0.964,1.772,1.205,0.514,0.940,0.863,�k��,5.2,��
2017/09/20,01:10,0.938,1.483,0.965,1.775,1.206,0.514,0.937,0.865,���k��,5.5,��
2017/09/20,01:20,0.939,1.482,0.965,1.777,1.205,0.513,0.939,0.862,���k��,4.7,��
2017/09/20,01:30,0.939,1.484,0.967,1.774,1.204,0.514,0.939,0.865,���k��,2.6,��
2017/09/20,01:40,0.937,1.485,0.966,1.774,1.205,0.514,0.937,0.865,��,1.7,��
2017/09/20,01:50,0.940,1.484,0.967,1.777,1.203,0.512,0.938,0.863,��,3.7,��
2017/09/20,02:00,0.938,1.483,0.963,1.773,1.204,0.513,0.936,0.865,��,4.7,��
2017/09/20,02:10,0.938,1.486,0.965,1.774,1.205,0.513,0.938,0.866,���쐼,5.2,��
2017/09/20,02:20,0.938,1.484,0.964,1.773,1.208,0.513,0.939,0.864,���쐼,4.2,��
2017/09/20,02:30,0.938,1.484,0.964,1.775,1.206,0.514,0.938,0.862,���쐼,3.5,��
2017/09/20,02:40,0.938,1.485,0.963,1.773,1.205,0.513,0.941,0.865,���쐼,3.5,��
2017/09/20,02:50,0.941,1.483,0.963,1.777,1.205,0.515,0.938,0.864,�쐼,1.2,��
2017/09/20,03:00,0.938,1.481,0.964,1.774,1.204,0.513,0.939,0.865,�쐼,2.3,��
2017/09/20,03:10,0.939,1.484,0.964,1.777,1.207,0.513,0.938,0.863,�쐼,1.2,��
2017/09/20,03:20,0.938,1.484,0.965,1.772,1.206,0.514,0.937,0.865,-,CALM,��
2017/09/20,03:30,0.937,1.483,0.963,1.775,1.205,0.513,0.936,0.864,��,1.4,��
2017/09/20,03:40,0.939,1.485,0.964,1.773,1.207,0.514,0.938,0.862,���k��,0.9,��
2017/09/20,03:50,0.938,1.485,0.964,1.775,1.207,0.515,0.936,0.865,-,CALM,��
2017/09/20,04:00,0.938,1.484,0.963,1.773,1.207,0.514,0.938,0.862,-,CALM,��
2017/09/20,04:10,0.940,1.483,0.964,1.772,1.205,0.513,0.939,0.861,-,CALM,��
2017/09/20,04:20,0.939,1.480,0.964,1.773,1.206,0.514,0.938,0.864,�k�k��,1.1,��
2017/09/20,04:30,0.940,1.481,0.965,1.773,1.206,0.513,0.938,0.863,�k�k��,1.4,��
2017/09/20,04:40,0.939,1.483,0.965,1.773,1.205,0.512,0.937,0.865,�k��,2.5,��
2017/09/20,04:50,0.937,1.482,0.964,1.772,1.206,0.513,0.939,0.863,�k��,3.2,��
2017/09/20,05:00,0.938,1.483,0.963,1.773,1.204,0.514,0.939,0.864,�k�k��,4.4,��
2017/09/20,05:10,0.938,1.484,0.965,1.775,1.206,0.514,0.938,0.861,�k�k��,4.5,��
2017/09/20,05:20,0.938,1.485,0.964,1.773,1.206,0.513,0.937,0.864,�k��,5.0,��
2017/09/20,05:30,0.937,1.484,0.964,1.775,1.207,0.513,0.938,0.864,�k��,4.2,��
2017/09/20,05:40,0.940,1.483,0.965,1.774,1.205,0.513,0.937,0.863,�k��,4.1,��
2017/09/20,05:50,0.939,1.483,0.964,1.774,1.207,0.514,0.937,0.863,�k��,3.4,��
2017/09/20,06:00,0.938,1.483,0.964,1.775,1.207,0.513,0.937,0.866,�k��,2.6,��
2017/09/20,06:10,0.938,1.484,0.962,1.773,1.206,0.512,0.939,0.864,�k��,2.5,��
2017/09/20,06:20,0.938,1.484,0.964,1.773,1.208,0.513,0.939,0.865,�k��,3.3,��
2017/09/20,06:30,0.937,1.484,0.964,1.774,1.207,0.513,0.938,0.864,�k��,3.2,��
2017/09/20,06:40,0.939,1.484,0.964,1.774,1.206,0.514,0.936,0.863,�k��,2.6,��
2017/09/20,06:50,0.941,1.482,0.964,1.775,1.207,0.515,0.936,0.863,�k��,2.0,��
2017/09/20,07:00,0.940,1.485,0.963,1.774,1.206,0.514,0.938,0.864,�k�k��,1.5,��
2017/09/20,07:10,0.939,1.482,0.963,1.772,1.205,0.514,0.936,0.863,�k�k��,1.7,��
2017/09/20,07:20,0.941,1.486,0.965,1.775,1.208,0.514,0.936,0.863,�k�k��,1.4,��
2017/09/20,07:30,0.939,1.485,0.964,1.773,1.207,0.514,0.936,0.863,�k�k��,1.1,��
2017/09/20,07:40,0.939,1.484,0.964,1.771,1.206,0.514,0.937,0.865,�k�k��,1.5,��
2017/09/20,07:50,0.941,1.488,0.965,1.775,1.211,0.514,0.936,0.863,�k�k��,0.6,��
2017/09/20,08:00,0.939,1.484,0.965,1.777,1.207,0.514,0.940,0.865,�k�k��,0.8,��
2017/09/20,08:10,0.940,1.483,0.967,1.775,1.207,0.513,0.938,0.865,-,CALM,��
2017/09/20,08:20,0.939,1.484,0.967,1.775,1.208,0.513,0.938,0.863,��,0.9,��
2017/09/20,08:30,0.938,1.483,0.966,1.775,1.207,0.513,0.938,0.864,-,CALM,��
2017/09/20,08:40,0.940,1.482,0.965,1.778,1.208,0.513,0.939,0.865,-,CALM,��
2017/09/20,08:50,0.938,1.483,0.964,1.779,1.207,0.509,0.936,0.864,���쐼,0.6,��
2017/09/20,09:00,0.939,1.483,0.964,1.777,1.205,0.512,0.937,0.865,-,CALM,��
2017/09/20,09:10,0.939,1.484,0.963,1.777,1.204,0.510,0.938,0.864,-,CALM,��
2017/09/20,09:20,0.937,1.481,0.963,1.776,1.206,0.512,0.937,0.863,��,1.7,��
2017/09/20,09:30,0.940,1.484,0.963,1.778,1.208,0.511,0.937,0.862,��,1.4,��
2017/09/20,09:40,0.940,1.483,0.964,1.779,1.207,0.513,0.938,0.861,��쓌,2.2,��
2017/09/20,09:50,0.940,1.483,0.963,1.778,1.208,0.513,0.938,0.861,��쓌,2.6,��
2017/09/20,10:00,0.939,1.483,0.962,1.777,1.208,0.513,0.938,0.863,��쓌,3.7,��
2017/09/20,10:10,0.940,1.486,0.964,1.778,1.207,0.514,0.939,0.863,��쓌,4.5,��
2017/09/20,10:20,0.939,1.486,0.962,1.777,1.208,0.512,0.938,0.861,��쓌,4.5,��
2017/09/20,10:30,0.940,1.486,0.963,1.779,1.210,0.513,0.941,0.863,�쓌,4.1,��
2017/09/20,10:40,0.942,1.486,0.966,1.779,1.207,0.513,0.939,0.862,��쓌,5.4,��
2017/09/20,10:50,0.939,1.488,0.962,1.775,1.209,0.513,0.939,0.864,��,5.9,��
2017/09/20,11:00,0.943,1.486,0.963,1.776,1.210,0.513,0.940,0.862,��,6.4,��
2017/09/20,11:10,0.943,1.489,0.961,1.779,1.211,0.514,0.940,0.864,��,6.3,��
2017/09/20,11:20,0.941,1.487,0.962,1.782,1.212,0.513,0.940,0.864,��,5.9,��
2017/09/20,11:30,0.940,1.489,0.962,1.780,1.210,0.515,0.940,0.864,��,7.0,��
2017/09/20,11:40,0.943,1.487,0.965,1.780,1.214,0.513,0.941,0.864,��,5.7,��
2017/09/20,11:50,0.943,1.489,0.963,1.781,1.213,0.513,0.941,0.865,��,6.1,��
2017/09/20,12:00,0.942,1.489,0.965,1.777,1.213,0.513,0.939,0.864,��,4.6,��
2017/09/20,12:10,0.944,1.490,0.965,1.781,1.213,0.513,0.940,0.863,��,4.3,��
2017/09/20,12:20,0.945,1.491,0.965,1.781,1.212,0.514,0.942,0.862,��,5.9,��
2017/09/20,12:30,0.943,1.490,0.963,1.783,1.214,0.514,0.942,0.863,��,5.2,��
2017/09/20,12:40,0.941,1.489,0.965,1.777,1.212,0.515,0.940,0.864,��,6.2,��
2017/09/20,12:50,0.942,1.491,0.967,1.781,1.214,0.515,0.939,0.864,��,6.2,��
2017/09/20,13:00,0.945,1.491,0.967,1.783,1.215,0.516,0.939,0.865,��,7.6,��
2017/09/20,13:10,0.943,1.492,0.967,1.782,1.216,0.515,0.938,0.863,��,7.8,��
2017/09/20,13:20,0.942,1.492,0.967,1.783,1.211,0.514,0.939,0.863,��,8.8,��
2017/09/20,13:30,0.943,1.489,0.968,1.784,1.214,0.514,0.940,0.864,��,7.5,��
2017/09/20,13:40,0.944,1.493,0.969,1.783,1.214,0.517,0.939,0.865,��,7.4,��
2017/09/20,13:50,0.943,1.491,0.968,1.781,1.212,0.515,0.939,0.865,��,7.3,��
2017/09/20,14:00,0.943,1.492,0.970,1.782,1.216,0.515,0.940,0.864,��,7.2,��
2017/09/20,14:10,0.943,1.491,0.968,1.781,1.213,0.516,0.941,0.866,��,6.1,��
2017/09/20,14:20,0.942,1.490,0.969,1.782,1.216,0.516,0.941,0.866,��,6.0,��
2017/09/20,14:30,0.944,1.490,0.967,1.785,1.214,0.517,0.940,0.865,��,4.6,��
2017/09/20,14:40,0.942,1.490,0.971,1.784,1.215,0.514,0.941,0.866,��,4.7,��
2017/09/20,14:50,0.943,1.491,0.971,1.783,1.214,0.516,0.940,0.868,��,5.8,��
2017/09/20,15:00,0.943,1.491,0.971,1.783,1.215,0.514,0.939,0.868,��,5.4,��
2017/09/20,15:10,0.945,1.490,0.970,1.784,1.217,0.514,0.941,0.864,��,6.5,��
2017/09/20,15:20,0.944,1.490,0.972,1.783,1.217,0.513,0.941,0.865,��쐼,6.9,��
2017/09/20,15:30,0.944,1.493,0.968,1.786,1.216,0.515,0.942,0.867,��쐼,7.9,��
2017/09/20,15:40,0.946,1.496,0.971,1.783,1.216,0.516,0.941,0.866,��쐼,7.4,��
2017/09/20,15:50,0.945,1.494,0.971,1.783,1.217,0.516,0.941,0.867,��쐼,7.1,��
2017/09/20,16:00,0.942,1.493,0.970,1.785,1.214,0.514,0.940,0.866,��쐼,6.9,��
2017/09/20,16:10,0.944,1.493,0.973,1.782,1.215,0.515,0.940,0.867,��,7.3,��
2017/09/20,16:20,0.943,1.491,0.971,1.782,1.213,0.516,0.941,0.866,��쐼,4.9,��
2017/09/20,16:30,0.944,1.492,0.970,1.782,1.216,0.516,0.942,0.867,��쐼,3.5,��
2017/09/20,16:40,0.944,1.495,0.970,1.781,1.213,0.515,0.938,0.867,��쐼,3.6,��
2017/09/20,16:50,0.943,1.495,0.972,1.783,1.216,0.517,0.942,0.868,�쐼,3.7,��
2017/09/20,17:00,0.946,1.494,0.971,1.785,1.218,0.515,0.939,0.868,�쐼,4.3,��
2017/09/20,17:10,0.945,1.497,0.971,1.783,1.218,0.517,0.942,0.866,��쐼,4.0,��
2017/09/20,17:20,0.945,1.498,0.974,1.787,1.220,0.518,0.943,0.867,�쐼,1.7,��
2017/09/20,17:30,0.945,1.495,0.974,1.783,1.218,0.517,0.940,0.868,���쐼,0.6,��
2017/09/20,17:40,0.946,1.497,0.972,1.786,1.219,0.517,0.939,0.867,��,0.6,��
2017/09/20,17:50,0.946,1.495,0.973,1.786,1.219,0.518,0.942,0.868,��쐼,1.4,��
2017/09/20,18:00,0.948,1.496,0.972,1.785,1.217,0.518,0.942,0.869,��,3.6,��
2017/09/20,18:10,0.947,1.498,0.974,1.785,1.219,0.519,0.941,0.866,��쐼,1.7,��
2017/09/20,18:20,0.947,1.495,0.972,1.783,1.216,0.518,0.940,0.868,��쓌,0.9,��
2017/09/20,18:30,0.944,1.497,0.972,1.783,1.218,0.517,0.942,0.866,��쐼,1.7,��
2017/09/20,18:40,0.945,1.494,0.972,1.786,1.217,0.516,0.943,0.868,��쐼,2.3,��
2017/09/20,18:50,0.947,1.492,0.973,1.782,1.216,0.517,0.941,0.867,-,CALM,��
2017/09/20,19:00,0.945,1.494,0.969,1.782,1.217,0.518,0.940,0.867,�쐼,0.9,��
2017/09/20,19:10,0.947,1.495,0.974,1.780,1.219,0.517,0.941,0.867,���쐼,0.9,��
2017/09/20,19:20,0.945,1.494,0.972,1.784,1.216,0.517,0.943,0.867,�k�k��,1.2,��
2017/09/20,19:30,0.947,1.495,0.971,1.784,1.214,0.516,0.942,0.867,��,1.4,��
2017/09/20,19:40,0.949,1.497,0.972,1.783,1.218,0.517,0.942,0.867,��,1.2,��
2017/09/20,19:50,0.945,1.497,0.972,1.785,1.217,0.517,0.941,0.868,-,CALM,��
2017/09/20,20:00,0.944,1.495,0.972,1.782,1.217,0.517,0.943,0.868,�k�k��,0.6,��
2017/09/20,20:10,0.942,1.494,0.973,1.783,1.218,0.518,0.941,0.867,-,CALM,��
2017/09/20,20:20,0.945,1.495,0.972,1.786,1.214,0.517,0.941,0.866,���k��,1.5,��
2017/09/20,20:30,0.949,1.494,0.972,1.783,1.218,0.518,0.942,0.867,��,2.0,��
2017/09/20,20:40,0.948,1.494,0.971,1.786,1.217,0.517,0.941,0.867,��,2.8,��
2017/09/20,20:50,0.946,1.492,0.972,1.783,1.217,0.516,0.939,0.866,��,2.6,��
2017/09/20,21:00,0.948,1.496,0.972,1.783,1.218,0.517,0.942,0.868,���k��,5.6,��
2017/09/20,21:10,0.947,1.497,0.973,1.783,1.219,0.517,0.943,0.869,���k��,5.4,��
2017/09/20,21:20,0.949,1.497,0.972,1.783,1.219,0.517,0.944,0.866,��,9.6,��
2017/09/20,21:30,0.948,1.494,0.971,1.785,1.219,0.519,0.943,0.866,��,6.3,��
2017/09/20,21:40,0.948,1.495,0.972,1.787,1.218,0.516,0.944,0.868,��,7.6,��
2017/09/20,21:50,0.947,1.495,0.972,1.786,1.216,0.518,0.942,0.868,��,9.7,��
2017/09/20,22:00,0.948,1.499,0.972,1.786,1.219,0.515,0.942,0.869,��,10.9,��
2017/09/20,22:10,0.947,1.498,0.974,1.787,1.220,0.516,0.942,0.869,��,10.3,��
2017/09/20,22:20,0.947,1.495,0.976,1.786,1.220,0.517,0.943,0.867,��,9.0,��
2017/09/20,22:30,0.942,1.495,0.973,1.788,1.220,0.514,0.942,0.866,���쐼,5.5,��
2017/09/20,22:40,0.945,1.495,0.973,1.787,1.217,0.516,0.943,0.866,��,4.3,��
2017/09/20,22:50,0.946,1.495,0.972,1.785,1.216,0.517,0.940,0.867,�쐼,5.1,��
2017/09/20,23:00,0.944,1.496,0.974,1.789,1.214,0.516,0.940,0.866,�쐼,2.3,��
2017/09/20,23:10,0.947,1.497,0.975,1.788,1.216,0.516,0.941,0.867,��,1.4,��
2017/09/20,23:20,0.947,1.495,0.973,1.788,1.220,0.517,0.944,0.867,�k��,1.5,��
2017/09/20,23:30,0.947,1.496,0.975,1.786,1.218,0.516,0.943,0.866,��,2.2,��
2017/09/20,23:40,0.946,1.498,0.973,1.788,1.218,0.517,0.941,0.866,�k��,1.5,��
2017/09/20,23:50,0.949,1.495,0.973,1.786,1.220,0.519,0.943,0.867,���k��,3.6,��
